Torna al catalogo

OPS 4682 DEB

AttivoPO
NORAD 18784·DEBRIS·🇺🇸 United States

Lanciato Apr 3, 1965 da Vandenberg Space Force Base

Loading…

Prossimi Passaggi (prossime 24 ore)

TLE

AggiornatoSource: Space-Track

Epoca: Sep 14, 2026, 06:14 UTC

1 18784U 65027AL  26257.26038419 -.00000258  00000-0 -91542-3 0  9994
2 18784  90.2596   6.4617 0039426 238.4104 149.3566 12.97120560813932

Traccia OPS 4682 DEB in tempo reale con AllMySat

Download on the App Store